DLH452 FAOR-FAGG

Flight info

Callsign DLH452
Flight time 1h 27m
Altitude 40000
Route HGV UZ16 NEVEN UQ9 XALIN DCT APGUP
Aircraft A346/H-SDE2E3FGHIJ3J4J5M1RWXY/LB1D1

Departure

Time 2026-05-06 09:51
Airport O.R. Tambo International Airport (FAOR)

Arrival

Time 2026-05-06 11:18
Airport George Airport (FAGG)
Time Latitude Longitude Altitude Speed Heading
2026-05-06 09:31 -26.13351 28.23319 5557 ft 0 kts 276°
2026-05-06 09:35 -26.13351 28.23318 5557 ft 0 kts 276°
2026-05-06 09:38 -26.13352 28.23328 5555 ft 0 kts 276°
2026-05-06 09:39 -26.13355 28.23356 5555 ft 0 kts 276°
2026-05-06 09:39 -26.13357 28.23384 5555 ft 0 kts 263°
2026-05-06 09:39 -26.13349 28.23400 5556 ft 0 kts 221°
2026-05-06 09:39 -26.13334 28.23408 5555 ft 0 kts 187°
2026-05-06 09:40 -26.13333 28.23408 5555 ft 0 kts 187°
2026-05-06 09:43 -26.13334 28.23408 5555 ft 0 kts 187°
2026-05-06 09:43 -26.13359 28.23401 5556 ft 9 kts 198°
2026-05-06 09:44 -26.13449 28.23373 5557 ft 16 kts 191°
2026-05-06 09:44 -26.13565 28.23357 5559 ft 18 kts 186°
2026-05-06 09:44 -26.13681 28.23344 5557 ft 19 kts 186°
2026-05-06 09:44 -26.13819 28.23325 5557 ft 18 kts 192°
2026-05-06 09:45 -26.13946 28.23288 5560 ft 18 kts 195°
2026-05-06 09:45 -26.14069 28.23250 5560 ft 18 kts 195°
2026-05-06 09:45 -26.14193 28.23211 5562 ft 19 kts 195°
2026-05-06 09:45 -26.14319 28.23219 5569 ft 17 kts 166°
2026-05-06 09:46 -26.14434 28.23250 5568 ft 18 kts 166°
2026-05-06 09:46 -26.14545 28.23282 5573 ft 6 kts 166°
2026-05-06 09:46 -26.14557 28.23286 5571 ft 2 kts 162°
2026-05-06 09:46 -26.14563 28.23289 5573 ft 0 kts 154°
2026-05-06 09:47 -26.14566 28.23290 5572 ft 0 kts 153°
2026-05-06 09:47 -26.14567 28.23291 5572 ft 0 kts 152°
2026-05-06 09:49 -26.14584 28.23308 5574 ft 6 kts 131°
2026-05-06 09:50 -26.14610 28.23374 5572 ft 11 kts 105°
2026-05-06 09:50 -26.14592 28.23447 5575 ft 11 kts 32°
2026-05-06 09:50 -26.14497 28.23481 5574 ft 24 kts 15°
2026-05-06 09:50 -26.14045 28.23620 5573 ft 109 kts 15°
2026-05-06 09:51 -26.13063 28.23924 5558 ft 180 kts 15°
2026-05-06 09:51 -26.11786 28.24349 6260 ft 185 kts 15°
2026-05-06 09:51 -26.10578 28.24743 7416 ft 180 kts 10°
2026-05-06 09:51 -26.09335 28.25043 8206 ft 185 kts
2026-05-06 09:52 -26.08030 28.25359 8673 ft 200 kts
2026-05-06 09:52 -26.06605 28.25712 9148 ft 216 kts
2026-05-06 09:52 -26.05096 28.25580 9613 ft 224 kts 337°
2026-05-06 09:52 -26.03794 28.24597 10107 ft 234 kts 310°
2026-05-06 09:53 -26.03067 28.22923 10595 ft 253 kts 282°
2026-05-06 09:53 -26.03186 28.20901 11222 ft 272 kts 266°
2026-05-06 09:53 -26.03502 28.18761 11773 ft 288 kts 268°
2026-05-06 09:53 -26.03805 28.16451 12293 ft 306 kts 269°
2026-05-06 09:54 -26.04150 28.14039 12732 ft 328 kts 264°
2026-05-06 09:54 -26.05215 28.11648 13171 ft 368 kts 239°
2026-05-06 09:54 -26.07211 28.09772 13984 ft 394 kts 221°
2026-05-06 09:54 -26.09842 28.08612 14758 ft 425 kts 201°
2026-05-06 09:55 -26.12873 28.08340 15422 ft 443 kts 190°
2026-05-06 09:55 -26.15987 28.08278 16029 ft 452 kts 189°
2026-05-06 09:55 -26.19159 28.08237 16677 ft 458 kts 189°
2026-05-06 09:55 -26.22363 28.08186 17338 ft 463 kts 190°
2026-05-06 09:56 -26.25598 28.08120 17917 ft 469 kts 190°
2026-05-06 09:56 -26.28885 28.08046 18517 ft 474 kts 191°
2026-05-06 09:56 -26.32203 28.07960 19072 ft 480 kts 190°
2026-05-06 09:56 -26.35555 28.07873 19643 ft 485 kts 190°
2026-05-06 09:57 -26.38944 28.07784 20246 ft 488 kts 190°
2026-05-06 09:57 -26.42351 28.07696 20840 ft 492 kts 190°
2026-05-06 09:57 -26.45784 28.07608 21414 ft 496 kts 190°
2026-05-06 09:57 -26.49246 28.07518 21992 ft 499 kts 190°
2026-05-06 09:58 -26.52729 28.07428 22528 ft 503 kts 189°
2026-05-06 09:58 -26.56243 28.07336 23064 ft 506 kts 189°
2026-05-06 09:58 -26.59774 28.07243 23561 ft 511 kts 189°
2026-05-06 09:58 -26.63345 28.07150 24028 ft 515 kts 189°
2026-05-06 09:59 -26.66979 28.07055 24522 ft 519 kts 189°
2026-05-06 09:59 -26.69372 28.06992 24841 ft 521 kts 189°
2026-05-06 09:59 -26.73007 28.06898 25322 ft 525 kts 189°
2026-05-06 09:59 -26.76671 28.06803 25820 ft 528 kts 189°
2026-05-06 10:00 -26.80355 28.06706 26250 ft 532 kts 189°
2026-05-06 10:00 -26.84082 28.06608 26684 ft 537 kts 189°
2026-05-06 10:00 -26.89101 28.06475 27281 ft 542 kts 189°
2026-05-06 10:00 -26.91599 28.06408 27562 ft 545 kts 189°
2026-05-06 10:01 -26.95401 28.06309 28053 ft 547 kts 189°
2026-05-06 10:01 -26.99208 28.06210 28642 ft 548 kts 189°
2026-05-06 10:01 -27.03013 28.06112 29223 ft 548 kts 189°
2026-05-06 10:01 -27.06815 28.06015 29925 ft 545 kts 189°
2026-05-06 10:02 -27.10599 28.05917 30598 ft 543 kts 189°
2026-05-06 10:02 -27.14373 28.05817 31250 ft 542 kts 189°
2026-05-06 10:02 -27.18131 28.05719 31885 ft 540 kts 189°
2026-05-06 10:02 -27.21881 28.05617 32499 ft 538 kts 189°
2026-05-06 10:03 -27.25620 28.05516 33081 ft 537 kts 189°
2026-05-06 10:03 -27.29351 28.05414 33639 ft 536 kts 189°
2026-05-06 10:03 -27.33072 28.05314 34185 ft 534 kts 189°
2026-05-06 10:03 -27.36784 28.05215 34716 ft 533 kts 189°
2026-05-06 10:04 -27.40465 28.04998 35239 ft 525 kts 194°
2026-05-06 10:04 -27.44043 28.04400 35745 ft 514 kts 201°
2026-05-06 10:04 -27.47464 28.03412 36195 ft 503 kts 208°
2026-05-06 10:04 -27.50715 28.02056 36593 ft 492 kts 214°
2026-05-06 10:05 -27.53723 28.00404 36863 ft 484 kts 220°
2026-05-06 10:05 -27.56566 27.98431 37169 ft 476 kts 225°
2026-05-06 10:05 -27.59257 27.96291 37641 ft 470 kts 226°
2026-05-06 10:05 -27.61894 27.94140 38155 ft 465 kts 227°
2026-05-06 10:06 -27.64510 27.92004 38557 ft 463 kts 227°
2026-05-06 10:06 -27.67125 27.89872 38811 ft 464 kts 226°
2026-05-06 10:06 -27.69751 27.87739 38991 ft 466 kts 226°
2026-05-06 10:06 -27.72395 27.85597 39208 ft 468 kts 226°
2026-05-06 10:07 -27.75044 27.83456 39394 ft 469 kts 226°
2026-05-06 10:07 -27.77704 27.81308 39592 ft 470 kts 226°
2026-05-06 10:07 -27.80372 27.79153 39768 ft 472 kts 226°
2026-05-06 10:07 -27.83046 27.76993 39935 ft 473 kts 226°
2026-05-06 10:08 -27.85732 27.74824 40060 ft 475 kts 226°
2026-05-06 10:08 -27.88420 27.72651 40061 ft 475 kts 225°
2026-05-06 10:08 -27.93806 27.68296 40057 ft 476 kts 225°
2026-05-06 10:09 -27.99181 27.63940 40067 ft 475 kts 225°
2026-05-06 10:09 -28.04625 27.59661 40065 ft 477 kts 224°
2026-05-06 10:10 -28.10120 27.55421 40061 ft 478 kts 224°
2026-05-06 10:10 -28.15608 27.51167 40055 ft 478 kts 224°
2026-05-06 10:11 -28.21098 27.46898 40064 ft 478 kts 224°
2026-05-06 10:11 -28.26541 27.42654 40066 ft 478 kts 224°
2026-05-06 10:12 -28.32024 27.38375 40051 ft 478 kts 224°
2026-05-06 10:12 -28.37506 27.34089 40046 ft 478 kts 224°
2026-05-06 10:13 -28.42989 27.29798 40057 ft 478 kts 224°
2026-05-06 10:13 -28.48469 27.25503 40044 ft 478 kts 224°
2026-05-06 10:14 -28.53962 27.21192 40048 ft 480 kts 224°
2026-05-06 10:14 -28.59457 27.16875 40051 ft 480 kts 224°
2026-05-06 10:15 -28.64955 27.12550 40042 ft 480 kts 224°
2026-05-06 10:15 -28.70454 27.08217 40043 ft 480 kts 224°
2026-05-06 10:16 -28.75950 27.03879 40034 ft 480 kts 223°
2026-05-06 10:16 -28.81437 26.99546 40036 ft 480 kts 223°
2026-05-06 10:17 -28.86936 26.95204 40035 ft 481 kts 223°
2026-05-06 10:17 -28.92434 26.90856 40028 ft 481 kts 223°
2026-05-06 10:18 -28.97938 26.86495 40025 ft 482 kts 223°
2026-05-06 10:18 -29.03445 26.82127 40026 ft 482 kts 223°
2026-05-06 10:19 -29.08923 26.77775 40023 ft 482 kts 223°
2026-05-06 10:19 -29.14434 26.73389 40023 ft 482 kts 223°
2026-05-06 10:20 -29.19947 26.68997 40022 ft 482 kts 223°
2026-05-06 10:20 -29.25459 26.64599 40021 ft 483 kts 223°
2026-05-06 10:21 -29.30968 26.60199 40022 ft 483 kts 223°
2026-05-06 10:21 -29.36486 26.55784 40025 ft 483 kts 223°
2026-05-06 10:22 -29.41999 26.51369 40024 ft 483 kts 222°
2026-05-06 10:22 -29.47514 26.46947 40021 ft 483 kts 222°
2026-05-06 10:23 -29.53030 26.42515 40004 ft 484 kts 222°
2026-05-06 10:23 -29.58548 26.38078 39989 ft 484 kts 222°
2026-05-06 10:24 -29.64065 26.33635 39985 ft 484 kts 222°
2026-05-06 10:24 -29.69583 26.29186 39988 ft 484 kts 222°
2026-05-06 10:25 -29.75101 26.24730 39983 ft 485 kts 221°
2026-05-06 10:25 -29.80623 26.20265 39967 ft 485 kts 221°
2026-05-06 10:26 -29.86114 26.15819 39978 ft 485 kts 221°
2026-05-06 10:26 -29.91633 26.11345 39979 ft 485 kts 221°
2026-05-06 10:27 -29.97157 26.06859 39958 ft 485 kts 221°
2026-05-06 10:27 -30.02682 26.02367 39960 ft 485 kts 221°
2026-05-06 10:28 -30.08212 25.97865 39956 ft 485 kts 221°
2026-05-06 10:28 -30.13731 25.93365 39952 ft 485 kts 221°
2026-05-06 10:29 -30.19245 25.88863 39951 ft 485 kts 221°
2026-05-06 10:29 -30.24720 25.84384 39947 ft 485 kts 221°
2026-05-06 10:30 -30.30230 25.79872 39943 ft 485 kts 221°
2026-05-06 10:30 -30.35734 25.75360 39941 ft 484 kts 221°
2026-05-06 10:31 -30.41238 25.70839 39936 ft 484 kts 221°
2026-05-06 10:31 -30.46735 25.66319 39933 ft 484 kts 221°
2026-05-06 10:32 -30.52228 25.61794 39933 ft 484 kts 221°
2026-05-06 10:32 -30.57721 25.57265 39928 ft 483 kts 221°
2026-05-06 10:33 -30.63203 25.52737 39945 ft 483 kts 221°
2026-05-06 10:33 -30.68687 25.48203 39945 ft 483 kts 221°
2026-05-06 10:34 -30.74128 25.43696 39948 ft 483 kts 220°
2026-05-06 10:34 -30.79600 25.39157 39947 ft 483 kts 220°
2026-05-06 10:35 -30.85067 25.34617 39948 ft 483 kts 220°
2026-05-06 10:35 -30.90532 25.30070 39947 ft 483 kts 220°
2026-05-06 10:36 -30.95998 25.25517 39941 ft 483 kts 220°
2026-05-06 10:36 -31.01466 25.20954 39940 ft 483 kts 220°
2026-05-06 10:37 -31.06927 25.16391 39934 ft 482 kts 220°
2026-05-06 10:37 -31.12385 25.11829 39931 ft 482 kts 220°
2026-05-06 10:38 -31.17842 25.07264 39930 ft 482 kts 220°
2026-05-06 10:38 -31.23293 25.02693 39922 ft 482 kts 219°
2026-05-06 10:39 -31.28741 24.98118 39923 ft 482 kts 219°
2026-05-06 10:39 -31.34187 24.93537 39916 ft 482 kts 219°
2026-05-06 10:40 -31.39592 24.88984 39912 ft 481 kts 219°
2026-05-06 10:40 -31.45032 24.84395 39914 ft 481 kts 219°
2026-05-06 10:41 -31.50465 24.79804 39906 ft 481 kts 219°
2026-05-06 10:41 -31.55895 24.75210 39904 ft 481 kts 219°
2026-05-06 10:42 -31.61320 24.70614 39902 ft 480 kts 219°
2026-05-06 10:42 -31.66736 24.66018 39898 ft 480 kts 219°
2026-05-06 10:43 -31.72151 24.61416 39893 ft 479 kts 218°
2026-05-06 10:44 -31.80215 24.54551 39894 ft 479 kts 218°
2026-05-06 10:44 -31.85608 24.49951 39893 ft 478 kts 218°
2026-05-06 10:45 -31.90993 24.45351 39884 ft 478 kts 218°
2026-05-06 10:45 -31.96376 24.40746 39883 ft 478 kts 218°
2026-05-06 10:46 -32.01751 24.36140 39882 ft 478 kts 218°
2026-05-06 10:46 -32.07136 24.31517 39884 ft 479 kts 218°
2026-05-06 10:47 -32.12523 24.26890 39884 ft 478 kts 218°
2026-05-06 10:47 -32.17903 24.22261 39879 ft 478 kts 218°
2026-05-06 10:48 -32.23279 24.17628 39875 ft 478 kts 218°
2026-05-06 10:48 -32.28646 24.12994 39568 ft 476 kts 218°
2026-05-06 10:48 -32.31324 24.10677 38832 ft 479 kts 218°
2026-05-06 10:49 -32.34026 24.08338 37987 ft 483 kts 217°
2026-05-06 10:49 -32.36707 24.06014 37263 ft 485 kts 217°
2026-05-06 10:49 -32.39465 24.03623 36574 ft 485 kts 217°
2026-05-06 10:49 -32.41270 24.02058 36128 ft 485 kts 217°
2026-05-06 10:50 -32.44914 23.98897 35152 ft 487 kts 217°
2026-05-06 10:50 -32.47616 23.96547 34385 ft 489 kts 216°
2026-05-06 10:50 -32.50361 23.94163 33685 ft 490 kts 216°
2026-05-06 10:50 -32.52218 23.92551 33226 ft 490 kts 216°
2026-05-06 10:51 -32.55853 23.89392 32411 ft 486 kts 216°
2026-05-06 10:51 -32.57684 23.87794 32016 ft 483 kts 216°
2026-05-06 10:51 -32.60344 23.85463 31453 ft 479 kts 214°
2026-05-06 10:51 -32.63917 23.82333 30676 ft 475 kts 213°
2026-05-06 10:52 -32.65674 23.80796 30226 ft 475 kts 213°
2026-05-06 10:52 -32.68347 23.78459 29450 ft 478 kts 212°
2026-05-06 10:52 -32.71037 23.76118 28619 ft 481 kts 212°
2026-05-06 10:52 -32.73739 23.73770 27965 ft 480 kts 212°
2026-05-06 10:53 -32.76431 23.71421 27329 ft 478 kts 213°
2026-05-06 10:53 -32.79093 23.69090 26812 ft 473 kts 213°
2026-05-06 10:53 -32.81731 23.66775 26249 ft 469 kts 213°
2026-05-06 10:53 -32.84340 23.64482 25768 ft 463 kts 213°
2026-05-06 10:54 -32.86915 23.62218 25321 ft 457 kts 213°
2026-05-06 10:54 -32.89452 23.59985 24890 ft 451 kts 213°
2026-05-06 10:54 -32.91961 23.57776 24462 ft 445 kts 213°
2026-05-06 10:54 -32.94436 23.55596 24045 ft 439 kts 213°
2026-05-06 10:55 -32.96881 23.53447 23631 ft 433 kts 213°
2026-05-06 10:55 -32.99293 23.51326 23215 ft 428 kts 213°
2026-05-06 10:55 -33.01672 23.49233 22790 ft 424 kts 213°
2026-05-06 10:55 -33.04035 23.47153 22367 ft 419 kts 213°
2026-05-06 10:56 -33.06371 23.45095 21937 ft 415 kts 213°
2026-05-06 10:56 -33.08687 23.43053 21506 ft 412 kts 213°
2026-05-06 10:56 -33.10982 23.41027 21085 ft 408 kts 213°
2026-05-06 10:56 -33.13256 23.39018 20637 ft 405 kts 213°
2026-05-06 10:57 -33.15519 23.37019 20215 ft 402 kts 213°
2026-05-06 10:57 -33.17757 23.35039 19789 ft 399 kts 213°
2026-05-06 10:57 -33.19981 23.33071 19363 ft 396 kts 213°
2026-05-06 10:57 -33.22189 23.31115 18946 ft 393 kts 213°
2026-05-06 10:58 -33.24379 23.29176 18521 ft 390 kts 213°
2026-05-06 10:58 -33.26552 23.27248 18105 ft 387 kts 213°
2026-05-06 10:58 -33.28683 23.25358 17694 ft 385 kts 213°
2026-05-06 10:58 -33.30829 23.23452 17276 ft 382 kts 213°
2026-05-06 10:59 -33.32954 23.21564 16874 ft 379 kts 213°
2026-05-06 10:59 -33.35064 23.19687 16478 ft 376 kts 213°
2026-05-06 10:59 -33.37161 23.17821 16070 ft 374 kts 213°
2026-05-06 10:59 -33.39242 23.15971 15660 ft 372 kts 214°
2026-05-06 11:00 -33.41313 23.14126 15259 ft 369 kts 214°
2026-05-06 11:00 -33.43360 23.12299 14858 ft 366 kts 214°
2026-05-06 11:00 -33.45397 23.10483 14463 ft 363 kts 214°
2026-05-06 11:00 -33.47413 23.08684 14059 ft 361 kts 214°
2026-05-06 11:01 -33.49416 23.06896 13660 ft 358 kts 214°
2026-05-06 11:01 -33.51406 23.05118 13257 ft 355 kts 214°
2026-05-06 11:01 -33.53380 23.03353 12849 ft 352 kts 214°
2026-05-06 11:01 -33.55339 23.01601 12446 ft 349 kts 214°
2026-05-06 11:02 -33.57269 22.99871 12051 ft 346 kts 214°
2026-05-06 11:02 -33.59192 22.98150 11649 ft 344 kts 214°
2026-05-06 11:02 -33.61100 22.96437 11249 ft 341 kts 214°
2026-05-06 11:02 -33.62991 22.94735 10825 ft 338 kts 213°
2026-05-06 11:03 -33.64852 22.93063 10625 ft 326 kts 213°
2026-05-06 11:03 -33.66625 22.91470 10539 ft 311 kts 212°
2026-05-06 11:03 -33.68319 22.89949 10434 ft 297 kts 212°
2026-05-06 11:03 -33.69943 22.88488 10325 ft 285 kts 211°
2026-05-06 11:04 -33.71500 22.87089 10231 ft 274 kts 211°
2026-05-06 11:04 -33.73009 22.85723 10127 ft 273 kts 211°
2026-05-06 11:04 -33.74511 22.84344 9988 ft 269 kts 211°
2026-05-06 11:04 -33.75991 22.82957 9534 ft 271 kts 211°
2026-05-06 11:05 -33.77456 22.81575 9159 ft 271 kts 211°
2026-05-06 11:05 -33.78932 22.80174 8806 ft 271 kts 211°
2026-05-06 11:05 -33.80395 22.78760 8454 ft 269 kts 211°
2026-05-06 11:05 -33.81833 22.77344 8227 ft 265 kts 211°
2026-05-06 11:06 -33.83257 22.75940 7710 ft 267 kts 211°
2026-05-06 11:06 -33.84684 22.74526 7373 ft 264 kts 212°
2026-05-06 11:06 -33.86102 22.73132 6982 ft 264 kts 211°
2026-05-06 11:06 -33.87514 22.71697 6514 ft 267 kts 210°
2026-05-06 11:07 -33.88908 22.70222 6178 ft 264 kts 211°
2026-05-06 11:07 -33.90270 22.68784 6019 ft 258 kts 212°
2026-05-06 11:07 -33.91628 22.67370 5968 ft 260 kts 211°
2026-05-06 11:07 -33.92986 22.65945 5935 ft 258 kts 211°
2026-05-06 11:08 -33.94336 22.64512 5946 ft 258 kts 211°
2026-05-06 11:08 -33.95684 22.63077 5970 ft 258 kts 212°
2026-05-06 11:08 -33.97024 22.61653 5815 ft 256 kts 211°
2026-05-06 11:08 -33.98361 22.60217 5375 ft 259 kts 211°
2026-05-06 11:09 -33.99704 22.58771 5030 ft 258 kts 212°
2026-05-06 11:09 -34.01042 22.57357 4759 ft 255 kts 211°
2026-05-06 11:09 -34.02364 22.55936 4408 ft 254 kts 211°
2026-05-06 11:09 -34.03685 22.54546 4096 ft 251 kts 211°
2026-05-06 11:10 -34.05007 22.53178 3991 ft 252 kts 211°
2026-05-06 11:10 -34.06344 22.51802 3989 ft 254 kts 211°
2026-05-06 11:10 -34.07689 22.50415 3989 ft 254 kts 211°
2026-05-06 11:10 -34.08901 22.48861 3969 ft 266 kts 230°
2026-05-06 11:11 -34.09481 22.46674 3982 ft 283 kts 254°
2026-05-06 11:11 -34.09611 22.44281 3992 ft 288 kts 260°
2026-05-06 11:11 -34.09759 22.41874 3997 ft 286 kts 253°
2026-05-06 11:11 -34.10066 22.39503 3983 ft 285 kts 251°
2026-05-06 11:12 -34.10404 22.37141 3993 ft 285 kts 251°
2026-05-06 11:12 -34.10730 22.34835 3985 ft 273 kts 251°
2026-05-06 11:12 -34.11022 22.32627 3982 ft 259 kts 251°
2026-05-06 11:12 -34.11278 22.30530 3977 ft 246 kts 251°
2026-05-06 11:13 -34.11512 22.28511 3798 ft 242 kts 251°
2026-05-06 11:13 -34.11743 22.26524 3524 ft 242 kts 252°
2026-05-06 11:13 -34.11694 22.24453 3255 ft 256 kts 281°
2026-05-06 11:13 -34.10789 22.22600 3088 ft 259 kts 315°
2026-05-06 11:14 -34.09312 22.21397 2833 ft 258 kts 336°
2026-05-06 11:14 -34.07663 22.20526 2540 ft 258 kts 340°
2026-05-06 11:14 -34.05977 22.19810 2475 ft 254 kts 354°
2026-05-06 11:14 -34.04276 22.19939 2479 ft 242 kts 30°
2026-05-06 11:15 -34.02911 22.20959 2492 ft 224 kts 49°
2026-05-06 11:15 -34.01790 22.22179 2519 ft 207 kts 52°
2026-05-06 11:15 -34.01067 22.23465 2482 ft 165 kts 83°
2026-05-06 11:15 -34.00902 22.24709 2449 ft 143 kts 98°
2026-05-06 11:16 -34.00891 22.25904 2383 ft 142 kts 101°
2026-05-06 11:16 -34.00885 22.27092 2160 ft 141 kts 97°
2026-05-06 11:16 -34.00857 22.28290 1990 ft 144 kts 96°
2026-05-06 11:16 -34.00819 22.29506 1807 ft 146 kts 94°
2026-05-06 11:17 -34.00775 22.30733 1621 ft 146 kts 94°
2026-05-06 11:17 -34.00735 22.31975 1422 ft 148 kts 93°
2026-05-06 11:17 -34.00697 22.33213 1213 ft 148 kts 92°
2026-05-06 11:17 -34.00657 22.34450 1027 ft 147 kts 92°
2026-05-06 11:18 -34.00616 22.35681 823 ft 146 kts 92°
2026-05-06 11:18 -34.00581 22.36909 665 ft 142 kts 91°
2026-05-06 11:18 -34.00555 22.37800 666 ft 63 kts 87°
2026-05-06 11:18 -34.00543 22.38110 661 ft 30 kts 88°
2026-05-06 11:19 -34.00535 22.38368 659 ft 31 kts 88°
2026-05-06 11:19 -34.00527 22.38631 661 ft 32 kts 88°
2026-05-06 11:19 -34.00520 22.38850 664 ft 12 kts 86°
2026-05-06 11:19 -34.00467 22.38911 665 ft 13 kts 15°
2026-05-06 11:20 -34.00363 22.38903 663 ft 17 kts 334°
2026-05-06 11:20 -34.00319 22.38858 659 ft 0 kts 304°
2026-05-06 11:20 -34.00311 22.38824 657 ft 8 kts 270°
2026-05-06 11:20 -34.00314 22.38740 656 ft 12 kts 268°
2026-05-06 11:21 -34.00317 22.38622 658 ft 16 kts 267°
2026-05-06 11:21 -34.00322 22.38471 656 ft 20 kts 268°
2026-05-06 11:21 -34.00326 22.38325 654 ft 18 kts 268°
2026-05-06 11:21 -34.00327 22.38270 654 ft 1 kts 269°
2026-05-06 11:22 -34.00326 22.38254 655 ft 3 kts 279°
2026-05-06 11:22 -34.00318 22.38210 656 ft 8 kts 284°
2026-05-06 11:22 -34.00302 22.38159 653 ft 2 kts 295°
2026-05-06 11:22 -34.00287 22.38131 655 ft 5 kts 309°
2026-05-06 11:23 -34.00279 22.38126 651 ft 2 kts 350°
2026-05-06 11:23 -34.00263 22.38137 652 ft 0 kts 37°
2026-05-06 11:23 -34.00251 22.38148 653 ft 0 kts 35°
2026-05-06 11:23 -34.00245 22.38154 652 ft 0 kts 37°
2026-05-06 11:27 -34.00541 22.38178 660 ft 0 kts 88°
2026-05-06 11:27 -34.00577 22.37118 667 ft 0 kts 88°
2026-05-06 11:28 -34.00593 22.36471 691 ft 0 kts 91°
2026-05-06 11:28 -34.00584 22.36772 672 ft 0 kts 91°
2026-05-06 11:28 -34.00578 22.37069 667 ft 0 kts 89°